This is the latest recevied weather packets stored in our database for station/object KP4FJC. If no packets are shown the sender has not sent any weather packets the latest 10 day(s).
| Time | Temp. | Humidity | Pressure | Rain* | Wind** | Luminosity | Snow |
|---|---|---|---|---|---|---|---|
| 1777550418 | 26.11° C | 87% | 1015.1 hPa | 0 mm | - | 210 W/m² | - |
| 1777550114 | 26.11° C | 88% | 1014.8 hPa | 0 mm | - | 195 W/m² | - |
| 1777549811 | 26.11° C | 89% | 1014.9 hPa | 0 mm | - | 206 W/m² | - |
| 1777549507 | 25.56° C | 90% | 1014.9 hPa | 0 mm | - | 163 W/m² | - |
| 1777549203 | 25.56° C | 91% | 1014.9 hPa | 0 mm | - | 176 W/m² | - |
| 1777548900 | 25° C | 92% | 1015.1 hPa | 0 mm | - | 147 W/m² | - |
| 1777548596 | 25° C | 93% | 1014.7 hPa | 0 mm | - | 147 W/m² | - |
| 1777548293 | 24.44° C | 93% | 1014.6 hPa | 0 mm | - | 128 W/m² | - |
| 1777547990 | 24.44° C | 94% | 1014.6 hPa | 0 mm | - | 90 W/m² | - |
| 1777547686 | 24.44° C | 94% | 1014.5 hPa | 0 mm | - | 82 W/m² | - |
| 1777547382 | 24.44° C | 94% | 1014.3 hPa | 0 mm | - | 76 W/m² | - |
| 1777547081 | 24.44° C | 94% | 1014.6 hPa | 0 mm | - | 73 W/m² | - |
| 1777546777 | 24.44° C | 95% | 1014.5 hPa | 0 mm | - | 73 W/m² | - |
| 1777546475 | 24.44° C | 95% | 1014.3 hPa | 0 mm | - | 76 W/m² | - |
| 1777546171 | 23.89° C | 95% | 1014.1 hPa | 0 mm | - | 77 W/m² | - |
| 1777545867 | 23.89° C | 95% | 1014.1 hPa | 0 mm | - | 61 W/m² | - |
| 1777545565 | 23.89° C | 95% | 1014.1 hPa | 0 mm | - | 43 W/m² | - |
| 1777545261 | 23.89° C | 95% | 1014.2 hPa | 0 mm | - | 30 W/m² | - |
| 1777544959 | 23.89° C | 96% | 1013.9 hPa | 0 mm | - | 24 W/m² | - |
| 1777544655 | 23.89° C | 96% | 1014 hPa | 0 mm | - | 17 W/m² | - |
| 1777544351 | 23.89° C | 96% | 1013.6 hPa | 0 mm | - | 10 W/m² | - |
| 1777544048 | 23.89° C | 96% | 1013.3 hPa | 0 mm | - | 10 W/m² | - |
| 1777543745 | 23.89° C | 96% | 1013.6 hPa | 0 mm | - | 7 W/m² | - |
| 1777543441 | 23.89° C | 96% | 1013.5 hPa | 0 mm | - | 5 W/m² | - |
| 1777543136 | 23.89° C | 96% | 1013.7 hPa | 0 mm | - | 3 W/m² | - |
* Rain latest hour (hover to see other rain measurements)
** Current wind speed in m/s (hover to see current wind gust speed)